SCP
-0 -0 0 0 0 0 0 0 0 0 -0 -0 0 0 0 0 -0 -0 -0 -0 -0 -0 -0 -0 -0 -0 -0 0 -0 -0 -0 0 0 -0 -0 -0 -0 -0 -0 -0 -0 -0 -0
0 -0 0 0 0 0 0 0 -0 0 0 0 0 0 0 -0 -0 -0 -0 -0 -0 -0 -0 -0 -0 -0 0 -0 -0 -0 -0 0 0 0 -0 0 0 -0 -0 -0 -0 -0 -0
0 -0 0 0 0 0 0 0 -0 -0 -0 0 0 -0 -0 -0 -0 -0 -0 -0 -0 -0 -0 -0 -0 -0 -0 -0 -0 -0 -0 0 0 0 -0 -0 0 -0 -0 -0 -0 -0 -0
0 -0 -0 0 0 0 0 -0 -0 -0 -0 0 0 -0 -0 -0 -0 -0 -0 -0 -0 -0 -0 -0 -0 -0 0 0 0 -0 0 0 0 0 0 0 0 -0 -0 -0 -0 -0 -0
0 -0 -0 0 0 -0 -0 -0 -0 -0 0 -0 -0 -0 -0 -0 0 0 -0 -0 -0 -0 -0 -0 -0 0 0 0 0 -0 0 -0 0 0 0 0 0 -0 -0 -0 -0 -0 -0
0 -0 0 0 0 -0 -0 -0 -0 -0 -0 -0 -0 -0 -0 -0 -0 -0 0 0 0 0 0 -0 0 -0 -0 -0 0 0 0 0 0 0 0 0 0 -0 -0 -0 -0 -0 -0
0 -0 -0 0 -0 -0 -0 -0 -0 -0 -0 -0 0 -0 0 0 0 -0 -0 0 0 0 0 0 0 -0 -0 0 0 0 0 0 0 0 0 0 -0 -0 -0 -0 -0 -0 -0
-0 -0 -0 -0 -0 0 0 0 0 -0 -0 -0 -0 -0 -0 0 0 0 0 0 0 0 0 0 0 0 0 0 0 0 -0 0 0 0 0 0 -0 -0 -0 -0 -0 -0 -0
-0 -0 -0 -0 0 0 0 0 0 0 -0 0 0 0 0 0 0 0 -0 0 0 0 0 0 0 0 0 0 0 0 -0 -0 0 0 0 0 0 -0 -0 -0 -0 -0 -0
-0 -0 -0 -0 0 0 0 0 0 0 0 0 0 0 0 0 0 0 0 0 0 0 0 0 0 0 0 0 0 0 0 0 0 0 0 0 0 -0 -0 -0 -0 -0 -0
-0 -0 -0 -0 0 0 0 0 0 0 0 0 0 0 0 0 0 0 0 0 0 0 0 0 0 0 0 0 -0 -0 -0 0 0 0 0 0 -0 -0 -0 -0 -0 -0 -0
0 -0 -0 -0 0 0 0 0 0 0 0 0 0 0 0 0 0 0 0 0 0 0 0 -0 0 0 0 0 0 0 0 0 0 0 0 0 0 0 -0 -0 -0 -0 -0
0 -0 -0 -0 -0 0 0 0 0 0 0 0 0 0 0 0 0 0 0 0 0 -0 0 0 0 0 0 0 0 0 0 0 0 0 0 0 0 -0 0 0 0 0 0
0 -0 -0 -0 -0 -0 0 0 0 0 0 0 0 0 0 0 0 0 0 0 0 0 0 -0 0 0 0 0 0 0 0 0 0 0 0 0 0 0 0 0 0 0 0
-0 -0 -0 -0 -0 -0 0 0 0 -0 0 0 0 0 0 0 0 0 0 0 0 0 0 0 -0 0 0 0 0 0 0 0 0 0 0 0 0 0 0 0 0 0 0
-0 -0 -0 -0 -0 -0 -0 -0 -0 -0 -0 -0 0 0 0 0 0 0 0 0 0 0 0 0 0 0 0 0 0 0 0 0 0 0 0 0 0 0 0 0 0 0 0
-0 -0 -0 -0 -0 -0 -0 -0 -0 -0 -0 -0 0 0 0 0 0 0 0 0 0 0 0 0 0 -0 0 0 0 -0 -0 0 0 0 0 0 0 0 0 0 0 0 0
-0 -0 -0 -0 -0 -0 -0 -0 -0 -0 -0 -0 0 0 0 0 0 0 0 0 0 0 0 0 0 0 0 0 0 0 0 0 0 0 0 0 0 0 0 0 0 0 0
-0 -0 -0 -0 -0 -0 -0 -0 -0 -0 0 0 0 0 0 0 0 0 0 0 0 0 -0 0 0 0 0 0 0 0 0 0 0 0 0 0 0 0 0 0 0 0 0
-0 -0 -0 -0 -0 -0 -0 -0 -0 -0 0 0 0 0 0 0 0 0 0 0 0 0 0 0 -0 -0 0 0 0 -0 0 0 0 0 0 0 0 0 0 0 0 0 0
0 -0 -0 -0 -0 -0 -0 -0 -0 -0 0 0 0 0 0 0 0 0 0 0 0 0 0 0 -0 -0 -0 -0 -0 0 0 0 0 0 0 0 0 0 0 0 0 0 0
0 -0 -0 -0 -0 -0 -0 0 0 -0 -0 0 0 0 0 0 0 0 0 0 -0 0 0 0 -0 -0 0 0 -0 -0 0 0 0 0 0 0 0 0 0 0 0 0 0
0 -0 -0 -0 -0 -0 -0 0 0 0 0 0 0 0 0 0 0 0 0 0 0 0 -0 0 0 0 0 0 0 -0 -0 0 0 0 0 0 0 0 0 0 0 0 0
0 0 0 0 0 0 -0 -0 -0 0 0 0 0 0 0 0 0 0 0 0 0 0 0 0 0 0 -0 0 0 0 0 0 0 0 0 0 0 0 0 0 0 0 0
0 0 0 0 0 0 -0 0 0 0 0 0 0 0 0 0 0 0 0 0 0 -0 0 0 0 0 0 0 0 0 0 0 0 0 0 0 0 0 0 0 0 0 0
0 0 0 0 0 0 0 0 0 0 0 0 0 0 0 0 0 -0 -0 0 -0 -0 -0 0 -0 0 0 0 0 0 0 0 0 0 0 0 0 0 0 0 0 0 0
Wind_Speed_500mb
52 52 46 44 42 39 36 33 30 28 26 25 26 25 25 24 23 21 20 20 18 15 13 11 12 11 12 14 15 13 11 11 13 17 22 22 20 20 23 25 26 28 27
58 54 46 44 41 38 34 32 30 28 26 25 25 24 25 26 25 24 23 21 18 18 22 16 15 12 13 15 15 15 15 15 17 19 21 22 21 23 23 26 26 27 27
59 56 48 43 40 35 30 30 29 28 27 26 26 25 25 26 26 26 22 21 23 25 20 15 18 19 21 22 21 22 21 22 20 20 20 17 19 22 23 24 24 23 26
64 59 48 42 38 33 30 30 29 28 27 28 26 26 27 27 26 25 25 25 24 21 20 20 24 27 26 29 30 28 26 24 23 21 20 19 21 21 22 24 24 24 26
65 59 48 42 38 34 31 30 30 28 26 26 26 26 27 26 27 26 25 25 25 24 25 23 26 28 28 29 26 25 24 24 24 20 20 18 19 21 22 22 22 24 26
65 57 49 42 37 33 30 28 27 27 28 26 25 26 26 26 26 26 26 25 24 25 25 24 24 28 27 30 29 28 23 22 23 22 21 20 19 21 20 20 23 24 25
64 56 50 41 34 32 30 27 27 30 29 26 25 27 28 26 25 26 26 25 23 21 21 22 22 25 27 26 27 27 27 24 23 25 21 19 21 21 17 21 23 23 22
62 56 50 40 33 31 29 26 27 29 30 27 26 27 28 28 29 29 29 28 26 24 22 22 21 22 26 25 25 24 25 25 26 24 21 20 16 16 18 19 20 21 21
58 55 49 40 34 31 28 26 26 27 29 32 27 29 31 31 30 31 30 27 25 23 23 22 21 21 23 23 21 24 24 26 24 21 21 19 16 16 17 18 17 18 18
56 53 47 41 36 33 29 27 26 28 31 31 32 31 31 29 28 27 25 27 23 21 21 21 21 23 22 22 21 18 20 18 18 19 18 18 16 15 15 14 16 16 17
55 51 47 43 38 33 29 28 28 29 30 32 31 30 27 25 25 24 21 19 20 16 19 20 21 21 20 20 21 20 17 13 14 14 13 16 14 16 11 12 14 14 14
56 54 49 43 39 34 30 29 29 31 30 28 29 26 23 20 19 17 17 14 17 15 16 19 20 20 16 15 19 17 13 13 10 12 10 13 13 12 12 12 12 15 11
61 56 51 45 39 35 31 29 30 32 32 29 28 25 19 15 12 12 13 15 14 11 11 17 18 20 15 11 14 15 13 13 11 8 10 12 9 9 10 9 9 10 8
64 58 52 46 41 36 31 30 32 34 30 24 24 24 17 14 9 10 11 12 10 9 11 15 18 15 12 9 10 14 15 14 10 9 9 9 9 9 8 7 6 5 5
63 59 53 48 42 37 33 34 38 32 27 22 22 18 11 9 4 4 6 9 10 10 14 12 14 13 10 13 10 11 11 9 10 12 9 8 9 7 5 6 6 4 4
62 58 54 49 43 39 35 37 38 32 27 24 21 17 10 8 5 6 9 9 8 11 10 14 14 9 12 13 8 10 10 8 7 8 13 7 8 7 4 3 6 4 3
66 59 56 50 45 41 39 42 38 34 30 24 19 13 10 9 5 5 5 8 9 13 11 7 14 14 11 11 10 12 9 8 7 6 8 10 10 6 4 2 2 2 3
66 63 56 52 49 45 44 44 39 33 27 22 17 11 7 5 2 1 6 6 13 13 9 8 13 17 13 11 6 8 8 8 7 4 4 7 10 11 9 6 2 0 3
69 65 60 55 52 49 46 46 40 32 26 25 25 18 11 4 2 1 4 2 10 8 11 16 12 13 8 2 2 3 2 3 6 5 4 5 6 7 5 6 5 2 3
68 65 62 58 56 56 47 48 42 35 27 26 27 21 15 9 3 3 4 3 4 6 8 10 6 3 2 3 1 5 5 4 3 2 2 1 3 2 4 6 7 2 2
69 68 65 66 62 65 58 54 50 43 32 30 29 24 21 13 7 3 5 4 4 6 6 7 8 8 4 3 9 6 3 4 4 3 3 5 4 3 6 6 5 4 5
76 74 66 67 66 65 60 57 53 45 36 29 30 26 24 17 14 11 9 9 10 9 8 6 9 8 5 5 13 5 3 2 10 8 7 8 8 10 6 6 6 7 9
82 80 76 69 71 67 60 57 51 50 46 42 39 32 26 22 19 16 13 10 15 15 9 11 8 12 8 5 12 11 8 7 9 12 14 15 11 10 8 4 5 5 4
90 86 82 76 76 73 67 63 59 53 52 53 48 44 37 28 23 21 17 11 13 16 12 12 11 12 13 10 13 12 12 9 10 8 14 13 13 12 6 6 2 4 7
93 90 87 79 79 78 75 72 68 63 58 54 55 52 50 43 35 28 24 19 14 16 16 15 16 11 20 18 23 19 16 18 17 21 17 12 14 15 16 11 10 10 8
98 93 94 88 85 83 78 74 75 74 64 57 52 61 58 51 47 38 32 28 21 16 18 18 18 17 16 23 27 27 25 23 21 22 24 22 26 21 19 18 16 15 15
Wind_Direction_500mb
148 146 145 139 138 134 129 128 129 130 133 138 137 143 149 149 148 143 138 130 126 121 116 119 122 136 155 157 159 159 139 114 104 99 99 98 91 85 95 95 93 94 95
148 147 146 144 139 135 135 135 134 130 129 127 130 133 136 139 136 131 126 127 124 114 106 97 90 102 121 130 141 146 140 125 105 97 100 108 99 83 93 94 94 98 96
150 146 145 146 141 139 136 129 129 129 127 126 125 130 131 131 128 127 127 121 117 117 106 97 89 101 112 116 111 113 116 116 121 110 103 104 100 93 101 100 101 103 103
150 147 145 147 144 141 135 134 133 128 127 123 119 120 126 127 129 125 120 118 116 117 114 104 97 93 106 112 115 115 104 111 115 114 112 110 106 100 102 107 104 104 104
155 150 147 149 149 144 139 135 131 132 130 130 128 122 124 127 125 124 123 120 113 108 110 106 105 101 107 112 117 110 107 99 99 113 112 107 108 108 108 111 107 108 108
157 155 152 150 149 141 138 133 130 131 125 126 127 127 127 124 123 124 125 117 114 110 106 106 111 106 102 113 109 107 105 103 85 96 103 109 116 109 111 116 113 113 109
160 161 158 155 147 142 141 134 131 130 125 120 118 121 119 119 118 121 120 117 113 113 115 113 121 115 106 114 108 103 97 95 92 93 98 103 104 109 112 114 113 114 113
163 163 163 160 152 149 145 137 135 134 128 127 126 121 123 121 120 118 115 114 113 113 116 122 124 126 117 113 116 106 92 90 89 85 97 104 105 109 106 113 117 116 115
165 164 166 164 158 155 151 141 137 135 132 130 129 125 120 116 115 115 116 115 112 104 103 111 119 128 118 105 114 110 97 91 83 82 93 98 106 111 118 114 117 118 118
166 167 168 166 163 159 154 145 139 132 134 131 131 128 122 121 120 114 114 116 106 105 104 105 110 118 119 108 101 122 103 88 81 80 92 101 105 111 103 115 117 122 123
169 170 172 169 166 161 156 147 142 138 137 138 136 133 127 125 124 120 116 110 109 100 97 96 110 115 116 102 101 99 92 79 68 68 94 102 106 106 123 111 121 123 123
172 173 175 170 169 164 160 155 149 148 142 141 138 138 137 134 128 125 118 108 100 100 104 107 108 118 115 101 92 96 105 87 74 70 94 114 116 112 112 108 114 114 130
175 176 176 174 173 169 164 159 153 150 140 138 137 140 146 147 139 123 115 115 96 90 110 122 120 116 125 105 91 95 111 92 77 91 100 111 125 124 116 104 104 126 120
177 178 178 177 175 171 168 161 154 151 147 143 146 141 141 140 132 117 113 116 78 81 133 146 135 117 117 116 95 117 105 93 82 84 100 127 120 115 128 129 118 109 114
180 180 181 179 176 174 169 164 158 155 150 154 154 146 152 180 194 194 108 103 122 102 135 137 146 134 111 121 109 120 117 92 74 68 89 122 112 105 121 132 140 115 128
183 183 182 182 178 178 172 168 165 164 156 147 147 136 132 174 118 107 137 115 119 151 141 148 159 149 133 120 117 112 116 105 95 69 65 87 119 107 108 103 105 119 92
185 184 185 184 182 182 176 169 167 163 165 149 140 149 114 124 75 153 164 157 142 146 141 126 161 151 145 125 95 131 102 106 120 102 83 77 73 70 70 75 65 36 210
190 187 186 186 185 184 181 175 173 177 181 189 181 170 163 103 144 98 157 136 139 143 129 122 124 139 143 125 93 95 93 114 136 95 117 64 65 57 49 41 20 335 279
195 191 189 190 188 184 183 184 185 189 196 194 195 200 198 112 130 225 167 145 148 145 110 124 131 132 131 142 132 113 131 154 150 133 79 88 69 44 39 44 27 349 325
199 196 195 194 192 188 187 191 194 200 203 202 202 200 201 172 112 179 204 350 167 140 147 143 117 109 91 124 73 153 154 210 229 151 166 133 80 106 350 352 360 46 313
205 201 201 200 198 196 197 197 201 205 206 207 208 213 207 196 204 203 232 300 198 160 161 182 192 178 159 256 167 140 178 231 219 255 226 251 270 296 327 330 332 285 317
208 207 205 204 201 200 205 205 211 213 213 218 219 219 219 216 221 232 246 267 233 223 220 234 230 222 225 209 192 183 206 197 211 239 260 272 267 268 285 349 332 295 286
212 210 209 208 206 204 204 208 213 216 218 222 225 228 234 233 233 237 243 267 236 247 259 247 277 226 221 241 206 216 226 245 243 256 263 260 258 264 254 255 46 38 360
218 216 215 214 213 212 212 217 220 221 222 226 233 239 241 244 242 241 239 259 243 249 248 233 249 232 230 225 202 215 224 259 261 291 269 275 262 263 253 247 263 344 15
221 220 218 219 218 219 220 223 228 229 231 234 237 238 240 245 247 245 241 242 247 246 240 237 238 259 235 238 228 234 247 254 263 261 291 307 293 290 288 285 281 288 303
218 223 222 222 222 223 224 228 232 232 235 237 242 237 239 243 246 244 244 242 246 252 246 250 243 248 245 232 235 248 254 258 272 266 270 290 301 294 296 289 286 287 280
Wind_Speed_850mb
52 52 46 44 42 39 36 33 30 28 26 25 26 25 25 24 23 21 20 20 18 15 13 11 12 11 12 14 15 13 11 11 13 17 22 22 20 20 23 25 26 28 27
58 54 46 44 41 38 34 32 30 28 26 25 25 24 25 26 25 24 23 21 18 18 22 16 15 12 13 15 15 15 15 15 17 19 21 22 21 23 23 26 26 27 27
59 56 48 43 40 35 30 30 29 28 27 26 26 25 25 26 26 26 22 21 23 25 20 15 18 19 21 22 21 22 21 22 20 20 20 17 19 22 23 24 24 23 26
64 59 48 42 38 33 30 30 29 28 27 28 26 26 27 27 26 25 25 25 24 21 20 20 24 27 26 29 30 28 26 24 23 21 20 19 21 21 22 24 24 24 26
65 59 48 42 38 34 31 30 30 28 26 26 26 26 27 26 27 26 25 25 25 24 25 23 26 28 28 29 26 25 24 24 24 20 20 18 19 21 22 22 22 24 26
65 57 49 42 37 33 30 28 27 27 28 26 25 26 26 26 26 26 26 25 24 25 25 24 24 28 27 30 29 28 23 22 23 22 21 20 19 21 20 20 23 24 25
64 56 50 41 34 32 30 27 27 30 29 26 25 27 28 26 25 26 26 25 23 21 21 22 22 25 27 26 27 27 27 24 23 25 21 19 21 21 17 21 23 23 22
62 56 50 40 33 31 29 26 27 29 30 27 26 27 28 28 29 29 29 28 26 24 22 22 21 22 26 25 25 24 25 25 26 24 21 20 16 16 18 19 20 21 21
58 55 49 40 34 31 28 26 26 27 29 32 27 29 31 31 30 31 30 27 25 23 23 22 21 21 23 23 21 24 24 26 24 21 21 19 16 16 17 18 17 18 18
56 53 47 41 36 33 29 27 26 28 31 31 32 31 31 29 28 27 25 27 23 21 21 21 21 23 22 22 21 18 20 18 18 19 18 18 16 15 15 14 16 16 17
55 51 47 43 38 33 29 28 28 29 30 32 31 30 27 25 25 24 21 19 20 16 19 20 21 21 20 20 21 20 17 13 14 14 13 16 14 16 11 12 14 14 14
56 54 49 43 39 34 30 29 29 31 30 28 29 26 23 20 19 17 17 14 17 15 16 19 20 20 16 15 19 17 13 13 10 12 10 13 13 12 12 12 12 15 11
61 56 51 45 39 35 31 29 30 32 32 29 28 25 19 15 12 12 13 15 14 11 11 17 18 20 15 11 14 15 13 13 11 8 10 12 9 9 10 9 9 10 8
64 58 52 46 41 36 31 30 32 34 30 24 24 24 17 14 9 10 11 12 10 9 11 15 18 15 12 9 10 14 15 14 10 9 9 9 9 9 8 7 6 5 5
63 59 53 48 42 37 33 34 38 32 27 22 22 18 11 9 4 4 6 9 10 10 14 12 14 13 10 13 10 11 11 9 10 12 9 8 9 7 5 6 6 4 4
62 58 54 49 43 39 35 37 38 32 27 24 21 17 10 8 5 6 9 9 8 11 10 14 14 9 12 13 8 10 10 8 7 8 13 7 8 7 4 3 6 4 3
66 59 56 50 45 41 39 42 38 34 30 24 19 13 10 9 5 5 5 8 9 13 11 7 14 14 11 11 10 12 9 8 7 6 8 10 10 6 4 2 2 2 3
66 63 56 52 49 45 44 44 39 33 27 22 17 11 7 5 2 1 6 6 13 13 9 8 13 17 13 11 6 8 8 8 7 4 4 7 10 11 9 6 2 0 3
69 65 60 55 52 49 46 46 40 32 26 25 25 18 11 4 2 1 4 2 10 8 11 16 12 13 8 2 2 3 2 3 6 5 4 5 6 7 5 6 5 2 3
68 65 62 58 56 56 47 48 42 35 27 26 27 21 15 9 3 3 4 3 4 6 8 10 6 3 2 3 1 5 5 4 3 2 2 1 3 2 4 6 7 2 2
69 68 65 66 62 65 58 54 50 43 32 30 29 24 21 13 7 3 5 4 4 6 6 7 8 8 4 3 9 6 3 4 4 3 3 5 4 3 6 6 5 4 5
76 74 66 67 66 65 60 57 53 45 36 29 30 26 24 17 14 11 9 9 10 9 8 6 9 8 5 5 13 5 3 2 10 8 7 8 8 10 6 6 6 7 9
82 80 76 69 71 67 60 57 51 50 46 42 39 32 26 22 19 16 13 10 15 15 9 11 8 12 8 5 12 11 8 7 9 12 14 15 11 10 8 4 5 5 4
90 86 82 76 76 73 67 63 59 53 52 53 48 44 37 28 23 21 17 11 13 16 12 12 11 12 13 10 13 12 12 9 10 8 14 13 13 12 6 6 2 4 7
93 90 87 79 79 78 75 72 68 63 58 54 55 52 50 43 35 28 24 19 14 16 16 15 16 11 20 18 23 19 16 18 17 21 17 12 14 15 16 11 10 10 8
98 93 94 88 85 83 78 74 75 74 64 57 52 61 58 51 47 38 32 28 21 16 18 18 18 17 16 23 27 27 25 23 21 22 24 22 26 21 19 18 16 15 15
Wind_Direction_850mb
148 146 145 139 138 134 129 128 129 130 133 138 137 143 149 149 148 143 138 130 126 121 116 119 122 136 155 157 159 159 139 114 104 99 99 98 91 85 95 95 93 94 95
148 147 146 144 139 135 135 135 134 130 129 127 130 133 136 139 136 131 126 127 124 114 106 97 90 102 121 130 141 146 140 125 105 97 100 108 99 83 93 94 94 98 96
150 146 145 146 141 139 136 129 129 129 127 126 125 130 131 131 128 127 127 121 117 117 106 97 89 101 112 116 111 113 116 116 121 110 103 104 100 93 101 100 101 103 103
150 147 145 147 144 141 135 134 133 128 127 123 119 120 126 127 129 125 120 118 116 117 114 104 97 93 106 112 115 115 104 111 115 114 112 110 106 100 102 107 104 104 104
155 150 147 149 149 144 139 135 131 132 130 130 128 122 124 127 125 124 123 120 113 108 110 106 105 101 107 112 117 110 107 99 99 113 112 107 108 108 108 111 107 108 108
157 155 152 150 149 141 138 133 130 131 125 126 127 127 127 124 123 124 125 117 114 110 106 106 111 106 102 113 109 107 105 103 85 96 103 109 116 109 111 116 113 113 109
160 161 158 155 147 142 141 134 131 130 125 120 118 121 119 119 118 121 120 117 113 113 115 113 121 115 106 114 108 103 97 95 92 93 98 103 104 109 112 114 113 114 113
163 163 163 160 152 149 145 137 135 134 128 127 126 121 123 121 120 118 115 114 113 113 116 122 124 126 117 113 116 106 92 90 89 85 97 104 105 109 106 113 117 116 115
165 164 166 164 158 155 151 141 137 135 132 130 129 125 120 116 115 115 116 115 112 104 103 111 119 128 118 105 114 110 97 91 83 82 93 98 106 111 118 114 117 118 118
166 167 168 166 163 159 154 145 139 132 134 131 131 128 122 121 120 114 114 116 106 105 104 105 110 118 119 108 101 122 103 88 81 80 92 101 105 111 103 115 117 122 123
169 170 172 169 166 161 156 147 142 138 137 138 136 133 127 125 124 120 116 110 109 100 97 96 110 115 116 102 101 99 92 79 68 68 94 102 106 106 123 111 121 123 123
172 173 175 170 169 164 160 155 149 148 142 141 138 138 137 134 128 125 118 108 100 100 104 107 108 118 115 101 92 96 105 87 74 70 94 114 116 112 112 108 114 114 130
175 176 176 174 173 169 164 159 153 150 140 138 137 140 146 147 139 123 115 115 96 90 110 122 120 116 125 105 91 95 111 92 77 91 100 111 125 124 116 104 104 126 120
177 178 178 177 175 171 168 161 154 151 147 143 146 141 141 140 132 117 113 116 78 81 133 146 135 117 117 116 95 117 105 93 82 84 100 127 120 115 128 129 118 109 114
180 180 181 179 176 174 169 164 158 155 150 154 154 146 152 180 194 194 108 103 122 102 135 137 146 134 111 121 109 120 117 92 74 68 89 122 112 105 121 132 140 115 128
183 183 182 182 178 178 172 168 165 164 156 147 147 136 132 174 118 107 137 115 119 151 141 148 159 149 133 120 117 112 116 105 95 69 65 87 119 107 108 103 105 119 92
185 184 185 184 182 182 176 169 167 163 165 149 140 149 114 124 75 153 164 157 142 146 141 126 161 151 145 125 95 131 102 106 120 102 83 77 73 70 70 75 65 36 210
190 187 186 186 185 184 181 175 173 177 181 189 181 170 163 103 144 98 157 136 139 143 129 122 124 139 143 125 93 95 93 114 136 95 117 64 65 57 49 41 20 335 279
195 191 189 190 188 184 183 184 185 189 196 194 195 200 198 112 130 225 167 145 148 145 110 124 131 132 131 142 132 113 131 154 150 133 79 88 69 44 39 44 27 349 325
199 196 195 194 192 188 187 191 194 200 203 202 202 200 201 172 112 179 204 350 167 140 147 143 117 109 91 124 73 153 154 210 229 151 166 133 80 106 350 352 360 46 313
205 201 201 200 198 196 197 197 201 205 206 207 208 213 207 196 204 203 232 300 198 160 161 182 192 178 159 256 167 140 178 231 219 255 226 251 270 296 327 330 332 285 317
208 207 205 204 201 200 205 205 211 213 213 218 219 219 219 216 221 232 246 267 233 223 220 234 230 222 225 209 192 183 206 197 211 239 260 272 267 268 285 349 332 295 286
212 210 209 208 206 204 204 208 213 216 218 222 225 228 234 233 233 237 243 267 236 247 259 247 277 226 221 241 206 216 226 245 243 256 263 260 258 264 254 255 46 38 360
218 216 215 214 213 212 212 217 220 221 222 226 233 239 241 244 242 241 239 259 243 249 248 233 249 232 230 225 202 215 224 259 261 291 269 275 262 263 253 247 263 344 15
221 220 218 219 218 219 220 223 228 229 231 234 237 238 240 245 247 245 241 242 247 246 240 237 238 259 235 238 228 234 247 254 263 261 291 307 293 290 288 285 281 288 303
218 223 222 222 222 223 224 228 232 232 235 237 242 237 239 243 246 244 244 242 246 252 246 250 243 248 245 232 235 248 254 258 272 266 270 290 301 294 296 289 286 287 280